Location: Narvik
(68.4360°N, 17.4370°E)
Time: 17:13:41
(UTC+02:00)

AO-92 - Visible Passes

Search period start: 17 September 2019 00:00
Search period end: 27 September 2019 00:00
Orbit: 489 x 500 km, 97.5° (Epoch: 16 September)

Date Brightness Start Highest point End Pass type
(mag) Time Alt. Az. Time Alt. Az. Time Alt. Az.
17 Sep ? 21:17:02 16° SE 21:19:55 67° ENE 21:23:36 10° NNW visible
17 Sep ? 22:51:37 17° SSW 22:53:51 31° W 22:57:12 10° NNW visible
18 Sep ? 20:55:46 14° SE 20:58:47 50° ENE 21:02:23 10° NNW visible
18 Sep ? 22:30:21 20° SSW 22:32:33 41° W 22:36:06 10° NNW visible
19 Sep ? 00:05:47 10° W 00:07:10 12° WNW 00:08:34 10° NW visible
19 Sep ? 20:34:30 12° ESE 20:37:41 38° NE 20:41:09 10° NNW visible
19 Sep ? 22:09:05 22° S 22:11:16 57° WSW 22:14:56 10° NNW visible
19 Sep ? 23:43:40 11° WSW 23:45:42 16° W 23:48:00 10° NW visible
20 Sep ? 20:13:21 10° ESE 20:16:37 30° NE 20:19:54 10° NNW visible
20 Sep ? 21:47:48 23° SSE 21:50:02 79° WSW 21:53:46 10° NNW visible
20 Sep ? 23:22:23 15° SW 23:24:16 21° W 23:27:07 10° NW visible
21 Sep ? 19:52:32 10° E 19:55:35 25° NE 19:58:38 10° NNW visible
21 Sep ? 21:26:33 22° SSE 21:28:51 76° ENE 21:32:34 10° NNW visible
21 Sep ? 23:01:07 19° SW 23:02:53 27° W 23:06:06 10° NNW visible
22 Sep ? 21:05:16 19° SE 21:07:41 56° ENE 21:11:21 10° NNW visible
22 Sep ? 22:39:51 23° SSW 22:41:32 37° W 22:45:01 10° NNW visible
23 Sep ? 00:15:36 10° W 00:16:15 10° WNW 00:16:53 10° WNW visible
23 Sep ? 20:43:59 16° ESE 20:46:35 42° NE 20:50:06 10° NNW visible
23 Sep ? 22:18:34 28° SSW 22:20:14 50° WSW 22:23:53 10° NNW visible
23 Sep ? 23:53:09 11° WSW 23:54:45 14° W 23:56:45 10° NW visible
24 Sep ? 20:22:42 14° ESE 20:25:29 33° NE 20:28:51 10° NNW visible
24 Sep ? 21:57:17 30° S 21:58:59 70° WSW 22:02:42 10° NNW visible
24 Sep ? 23:31:52 15° WSW 23:33:17 18° W 23:35:57 10° NW visible
25 Sep ? 20:01:26 11° ESE 20:04:26 27° NE 20:07:35 10° NNW visible
25 Sep ? 21:36:01 30° SSE 21:37:46 86° ENE 21:41:30 10° NNW visible
25 Sep ? 23:10:35 20° WSW 23:11:51 24° W 23:14:58 10° NW visible
26 Sep ? 19:40:31 10° E 19:43:25 22° NE 19:46:20 10° N visible
26 Sep ? 21:14:44 27° SE 21:16:35 64° ENE 21:20:16 10° NNW visible
26 Sep ? 22:49:19 26° SW 22:50:30 32° W 22:53:54 10° NNW visible
